This is the latest recevied weather packets stored in our database for station/object DL4NBA-1. If no packets are shown the sender has not sent any weather packets the latest 10 day(s).
| Time | Temp. | Humidity | Pressure | Rain* | Wind** | Luminosity | Snow |
|---|---|---|---|---|---|---|---|
| 1777725517 | 28.33° C | - | - | 0 mm | 2.24 m/s, 113° | - | - |
| 1777725218 | 28.33° C | - | - | 0 mm | 2.24 m/s, 139° | - | - |
| 1777724919 | 27.22° C | - | - | 0 mm | 0.89 m/s, 139° | - | - |
| 1777724620 | 28.89° C | - | - | 0 mm | 3.13 m/s, 145° | - | - |
| 1777724321 | 27.78° C | - | - | 0 mm | 1.34 m/s, 131° | - | - |
| 1777723720 | 28.33° C | - | - | 0 mm | 1.79 m/s, 96° | - | - |
| 1777723122 | 27.22° C | - | - | 0 mm | 0 m/s | - | - |
| 1777722823 | 27.78° C | - | - | 0 mm | 4.47 m/s, 138° | - | - |
| 1777722521 | 27.78° C | - | - | 0 mm | 2.68 m/s, 125° | - | - |
| 1777721923 | 27.22° C | - | - | 0 mm | 3.58 m/s, 104° | - | - |
| 1777721325 | 27.78° C | - | - | 0 mm | 1.34 m/s, 83° | - | - |
| 1777721022 | 27.78° C | - | - | 0 mm | 2.24 m/s, 177° | - | - |
| 1777719827 | 26.11° C | - | - | 0 mm | 3.13 m/s, 87° | - | - |
| 1777719524 | 26.67° C | - | - | 0 mm | 3.58 m/s, 80° | - | - |
| 1777719225 | 26.67° C | - | - | 0 mm | 2.68 m/s, 103° | - | - |
| 1777718927 | 26.67° C | - | - | 0 mm | 3.13 m/s, 82° | - | - |
| 1777718026 | 26.11° C | - | - | 0 mm | 3.58 m/s, 121° | - | - |
| 1777717428 | 25.56° C | - | - | 0 mm | 3.58 m/s, 98° | - | - |
| 1777717129 | 25.56° C | - | - | 0 mm | 3.13 m/s, 107° | - | - |
| 1777716231 | 25° C | - | - | 0 mm | 1.34 m/s, 132° | - | - |
| 1777715633 | 23.89° C | - | - | 0 mm | 2.24 m/s, 93° | - | - |
| 1777715335 | 24.44° C | - | - | 0 mm | 4.02 m/s, 107° | - | - |
| 1777715032 | 23.33° C | - | - | 0 mm | 3.58 m/s, 97° | - | - |
| 1777714734 | 23.89° C | - | - | 0 mm | 1.79 m/s, 167° | - | - |
| 1777714435 | 23.33° C | - | - | 0 mm | 4.47 m/s, 110° | - | - |
* Rain latest hour (hover to see other rain measurements)
** Current wind speed in m/s (hover to see current wind gust speed)